Mayport Coastal Sciences Middle FL US WEATHERSTEM current weather conditions

sailwx.info

Wind from 290 at 0 knots gusting 9

Air temperature 17.4° C
Dewpoint 11.0° C

Last reported at 2020-Sep-30 07:00 UTC.
Time now 2020-Sep-30 07:32 UTC

Location: N 30°22' W 081°25'.
View on Google Maps.

See reports from other nearby stations

  
Tides and Currents Weather Stations Pressure Air Temp Water Temp Dewpoint Dewpoint Depression Visibility Wind Speed Wind Dir Waves Ship Positions
date/time (UTC)wind fromknots sea level pressurealtimeterstation pressurevisibilityair tempwater tempwave heightnotes
2020-Sep-30 07:00 290 0 gusting 9 17.4
2020-Sep-30 06:50 327 4 gusting 13 17.5
2020-Sep-30 06:40 286 2 gusting 11 17.6
2020-Sep-30 06:20 273 0 gusting 7 17.7
2020-Sep-30 06:00 292 2 gusting 8 17.7
2020-Sep-30 05:40 264 5 gusting 6 17.7
2020-Sep-30 05:20 17.7
2020-Sep-30 05:10 295 3 gusting 7 17.6
2020-Sep-30 05:00 259 1 gusting 8 17.7
2020-Sep-30 04:50 283 0 gusting 10 17.7
2020-Sep-30 04:40 305 7 gusting 8 17.7
2020-Sep-30 04:30 306 0 gusting 9 17.7
2020-Sep-30 04:20 330 2 gusting 8 17.7
2020-Sep-30 04:00 295 2 gusting 11 18.0
2020-Sep-30 03:50 242 3 gusting 10 18.1
2020-Sep-30 03:40 266 1 gusting 12 18.1
2020-Sep-30 03:30 323 2 gusting 12 18.1
2020-Sep-30 03:20 274 3 gusting 10 18.2
2020-Sep-30 03:00 323 7 gusting 8 18.4
2020-Sep-30 02:50 18.4
2020-Sep-30 02:40 015 3 gusting 9 18.4
2020-Sep-30 02:30 345 2 gusting 11 18.5
2020-Sep-30 02:20 292 3 gusting 8 18.7
2020-Sep-30 02:00 257 6 gusting 6 18.6
2020-Sep-30 01:50 296 2 gusting 9 18.5
2020-Sep-30 01:40 281 2 gusting 9 18.4
2020-Sep-30 01:30 244 2 gusting 9 18.3
2020-Sep-30 01:20 340 1 gusting 6 18.3
2020-Sep-30 01:00 303 0 gusting 8 18.3
2020-Sep-30 00:50 269 1 gusting 6 18.4
2020-Sep-30 00:40 355 1 gusting 9 18.4
2020-Sep-30 00:30 235 1 gusting 7 18.3
2020-Sep-30 00:20 350 0 gusting 9 18.4
2020-Sep-30 00:00 284 3 gusting 12 18.9
2020-Sep-29 23:50 015 0 gusting 7 19.2
2020-Sep-29 23:40 042 1 gusting 10 19.1
2020-Sep-29 23:30 054 0 gusting 13 19.2
2020-Sep-29 23:20 19.4
2020-Sep-29 23:00 360 0 gusting 12 19.9
2020-Sep-29 22:40 306 4 gusting 16 21.5
2020-Sep-29 22:30 323 7 gusting 22 23.4
2020-Sep-29 22:20 269 6 gusting 10 27.8
2020-Sep-29 22:10 276 6 gusting 6 28.3
2020-Sep-29 22:00 263 5 gusting 8 28.3
2020-Sep-29 21:50 234 2 gusting 13 28.4
2020-Sep-29 21:40 267 3 gusting 13 28.3
2020-Sep-29 21:30 243 4 gusting 11 28.3
2020-Sep-29 21:20 257 4 gusting 13 28.2
2020-Sep-29 21:10 258 1 gusting 11 28.3
2020-Sep-29 21:00 265 3 gusting 11 28.4
2020-Sep-29 20:30 279 6 gusting 10 31.0
2020-Sep-29 20:10 277 3 gusting 8 30.7
2020-Sep-29 20:00 272 2 gusting 10 30.6
2020-Sep-29 19:40 265 7 gusting 12 31.7
2020-Sep-29 19:30 238 4 gusting 14 32.1
2020-Sep-29 19:20 249 12 gusting 12 32.3
2020-Sep-29 19:10 273 3 gusting 12 32.0
2020-Sep-29 19:00 186 5 gusting 9 32.2
2020-Sep-29 18:50 227 5 gusting 10 32.0
2020-Sep-29 18:40 232 6 gusting 11 32.1
2020-Sep-29 18:20 240 5 gusting 13 32.6
2020-Sep-29 18:10 216 4 gusting 13 32.0
2020-Sep-29 18:00 228 6 gusting 13 32.2
2020-Sep-29 17:50 223 6 gusting 10 31.9
2020-Sep-29 17:40 222 6 gusting 11 32.2
2020-Sep-29 17:30 245 4 gusting 13 32.6
2020-Sep-29 17:20 288 6 gusting 11 32.2
2020-Sep-29 17:10 306 4 gusting 9 32.2
2020-Sep-29 17:00 176 6 gusting 10 31.3
2020-Sep-29 16:50 198 4 gusting 13 30.9
2020-Sep-29 16:40 232 4 gusting 14 30.7
2020-Sep-29 16:30 239 4 gusting 8 30.7
2020-Sep-29 16:20 223 10 gusting 12 30.3
2020-Sep-29 16:10 256 6 gusting 13 30.2
2020-Sep-29 16:00 253 4 gusting 11 30.2
2020-Sep-29 15:50 265 8 gusting 8 30.4
2020-Sep-29 15:40 192 4 gusting 12 30.3
2020-Sep-29 15:30 216 6 gusting 7 29.7
2020-Sep-29 15:20 249 2 gusting 8 28.9
2020-Sep-29 15:10 205 4 gusting 9 28.3
2020-Sep-29 15:00 207 6 gusting 8 27.9
2020-Sep-29 14:40 232 1 gusting 6 26.7
2020-Sep-29 14:30 219 6 gusting 8 26.4
2020-Sep-29 14:10 213 1 gusting 6 26.2
2020-Sep-29 14:00 211 2 gusting 6 26.2
2020-Sep-29 13:40 193 2 gusting 6 25.7
2020-Sep-29 13:30 223 2 gusting 6 25.6
2020-Sep-29 13:20 227 2 gusting 5 25.4
2020-Sep-29 13:10 200 1 gusting 7 25.2
2020-Sep-29 13:00 216 4 gusting 6 25.1
2020-Sep-29 12:40 237 1 gusting 4 24.8
2020-Sep-29 12:30 211 3 gusting 4 24.8
2020-Sep-29 12:20 215 1 gusting 6 24.7
2020-Sep-29 12:10 208 2 gusting 5 24.7
2020-Sep-29 12:00 246 0 gusting 5 24.6
2020-Sep-29 11:40 239 1 gusting 3 24.6
2020-Sep-29 11:30 222 1 gusting 3 24.5
2020-Sep-29 11:20 273 0 gusting 3 24.4
2020-Sep-29 11:10 24.3
2020-Sep-29 11:00 213 0 gusting 3 24.3
2020-Sep-29 10:50 213 1 gusting 3 24.3
2020-Sep-29 10:40 208 2 gusting 3 24.2
2020-Sep-29 10:30 207 1 gusting 2 24.2
2020-Sep-29 10:20 188 0 gusting 2 24.2
2020-Sep-29 10:10 24.2
2020-Sep-29 10:00 181 1 gusting 2 24.2
2020-Sep-29 09:50 205 1 gusting 2 24.3
2020-Sep-29 09:40 24.3
2020-Sep-29 09:30 209 1 gusting 2 24.3
2020-Sep-29 09:20 188 1 gusting 2 24.3
2020-Sep-29 09:10 24.3
2020-Sep-29 09:00 24.3
2020-Sep-29 08:50 258 0 gusting 2 24.3
2020-Sep-29 08:40 24.3
2020-Sep-29 08:30 245 0 gusting 3 24.3
2020-Sep-29 08:20 24.4
2020-Sep-29 08:10 232 1 gusting 4 24.4
2020-Sep-29 07:50 222 0 gusting 4 24.4
2020-Sep-29 07:40 24.4
2020-Sep-29 07:30 182 1 gusting 3 24.4
2020-Sep-29 07:20 245 1 gusting 4 24.4
2020-Sep-29 07:10 202 2 gusting 3 24.4
2020-Sep-29 07:00 178 1 gusting 3 24.4
2020-Sep-29 06:50 218 0 gusting 3 24.6
2020-Sep-29 06:40 215 1 gusting 2 24.6
2020-Sep-29 06:30 24.6
2020-Sep-29 06:20 209 0 gusting 3 24.6
2020-Sep-29 06:10 360 0 gusting 2 24.6
2020-Sep-29 06:00 24.7
2020-Sep-29 05:50 24.7
2020-Sep-29 05:40 24.7
2020-Sep-29 05:30 211 0 gusting 1 24.7
2020-Sep-29 05:20 209 1 gusting 2 24.8
2020-Sep-29 05:10 223 2 gusting 4 24.9
2020-Sep-29 05:00 244 1 gusting 4 24.9
2020-Sep-29 04:50 219 0 gusting 2 25.0
2020-Sep-29 04:40 25.1
2020-Sep-29 04:30 223 0 gusting 3 25.2
2020-Sep-29 04:20 226 0 gusting 2 25.2
2020-Sep-29 04:10 25.3
2020-Sep-29 03:50 192 25.4
2020-Sep-29 03:40 25.5
2020-Sep-29 03:30 25.6
2020-Sep-29 03:20 227 2 gusting 3 25.7
2020-Sep-29 03:10 219 0 gusting 3 25.8
2020-Sep-29 03:00 207 0 gusting 3 25.9
2020-Sep-29 02:50 198 0 gusting 3 25.9
2020-Sep-29 02:40 196 3 gusting 6 26.0
2020-Sep-29 02:30 208 3 gusting 5 26.1
2020-Sep-29 02:20 158 1 gusting 2 26.1
2020-Sep-29 02:10 214 0 gusting 1 26.1
2020-Sep-29 02:00 214 0 gusting 1 26.1
2020-Sep-29 01:50 26.1
2020-Sep-29 01:40 26.0
2020-Sep-29 01:30 194 1 gusting 3 25.9
2020-Sep-29 01:20 25.9
2020-Sep-29 01:10 25.8
2020-Sep-29 00:50 25.8
2020-Sep-29 00:40 25.8
2020-Sep-29 00:30 25.8
2020-Sep-29 00:20 153 0 gusting 2 25.8
2020-Sep-29 00:00 25.8
2020-Sep-28 23:50 155 0 gusting 4 25.8
2020-Sep-28 23:40 25.9
2020-Sep-28 23:30 25.9
2020-Sep-28 23:20 153 0 gusting 2 26.0
2020-Sep-28 23:10 26.1
2020-Sep-28 23:00 125 2 gusting 6 26.3
2020-Sep-28 22:50 126 0 gusting 2 26.4
2020-Sep-28 22:40 26.6
2020-Sep-28 22:30 26.7
2020-Sep-28 22:20 26.7
2020-Sep-28 22:10 26.8
2020-Sep-28 22:00 154 0 gusting 1 26.7
2020-Sep-28 21:50 26.8
2020-Sep-28 21:40 26.9
2020-Sep-28 21:20 153 1 gusting 3 27.2
2020-Sep-28 17:10 297 6 gusting 6 30.0
2020-Sep-28 17:00 225 6 gusting 8 30.4
2020-Sep-28 16:50 200 2 gusting 7 30.8
2020-Sep-28 16:40 234 3 gusting 10 31.1
2020-Sep-28 16:30 215 4 gusting 11 30.7
2020-Sep-28 16:20 196 4 gusting 10 30.0
2020-Sep-28 16:10 225 3 gusting 8 29.9
2020-Sep-28 16:00 223 1 gusting 8 29.9
2020-Sep-28 15:50 267 2 gusting 7 30.3
2020-Sep-28 15:40 203 4 gusting 12 29.9
2020-Sep-28 15:30 241 7 gusting 11 30.0
2020-Sep-28 15:20 209 7 gusting 11 29.8
2020-Sep-28 15:10 209 6 gusting 12 29.6
2020-Sep-28 15:00 223 1 gusting 6 28.8
2020-Sep-28 14:50 252 2 gusting 6 28.2
2020-Sep-28 12:50 223 3 gusting 5 25.0
2020-Sep-28 12:40 221 1 gusting 3 24.8
2020-Sep-28 12:30 206 1 gusting 3 24.7
2020-Sep-28 12:20 219 0 gusting 3 24.6
2020-Sep-28 12:10 207 2 gusting 5 24.6
2020-Sep-28 12:00 200 0 gusting 3 24.6
2020-Sep-28 11:50 198 1 gusting 3 24.6
2020-Sep-28 11:30 206 0 gusting 2 24.7
2020-Sep-28 11:10 24.6
2020-Sep-28 11:00 206 24.7
2020-Sep-28 10:40 24.7
2020-Sep-28 10:10 233 2 gusting 3 24.8
2020-Sep-28 10:00 24.8
2020-Sep-28 09:50 211 1 gusting 3 24.8
2020-Sep-28 09:40 360 1 gusting 4 24.9
2020-Sep-28 09:30 226 1 gusting 5 24.9
2020-Sep-28 09:20 205 3 gusting 4 25.0
2020-Sep-28 09:10 203 1 gusting 4 25.1
2020-Sep-28 09:00 236 1 gusting 3 25.2
2020-Sep-28 08:50 221 1 gusting 3 25.3
2020-Sep-28 08:40 25.4
2020-Sep-28 08:30 239 3 gusting 3 25.7
2020-Sep-28 08:20 238 1 gusting 2 25.9
2020-Sep-28 08:10 25.9
2020-Sep-28 08:00 26.0
2020-Sep-28 07:50 26.1
2020-Sep-28 07:40 123 0 gusting 2 26.1
2020-Sep-28 07:30 26.1
2020-Sep-28 07:20 156 1 gusting 3 26.2
2020-Sep-28 07:10 134 0 gusting 2 26.2
2020-Sep-28 07:00 26.2